CTV414 WIII-WIOO

Flight info

Callsign CTV414
Flight time 1h 5m
Altitude 37000
Route ABASA W14 LAKUN
Aircraft A320/M-SDE3FGHIRWY/LB1

Departure

Time 2026-04-26 08:32
Airport Soekarno-Hatta International Airport (WIII)

Arrival

Time 2026-04-26 09:38
Airport Supadio International Airport (WIOO)
Time Latitude Longitude Altitude Speed Heading
2026-04-26 08:20 -6.13233 106.65167 38 ft 0 kts 33°
2026-04-26 08:22 -6.13247 106.65158 36 ft 3 kts 33°
2026-04-26 08:22 -6.13264 106.65147 38 ft 3 kts 33°
2026-04-26 08:23 -6.13282 106.65135 38 ft 3 kts 33°
2026-04-26 08:23 -6.13299 106.65124 38 ft 3 kts 33°
2026-04-26 08:23 -6.13304 106.65120 38 ft 0 kts 33°
2026-04-26 08:27 -6.13298 106.65126 37 ft 4 kts 45°
2026-04-26 08:27 -6.13304 106.65163 37 ft 7 kts 120°
2026-04-26 08:27 -6.13346 106.65206 38 ft 15 kts 147°
2026-04-26 08:28 -6.13447 106.65248 38 ft 15 kts 160°
2026-04-26 08:28 -6.13546 106.65284 38 ft 15 kts 159°
2026-04-26 08:28 -6.13641 106.65319 39 ft 16 kts 174°
2026-04-26 08:28 -6.13711 106.65236 39 ft 19 kts 248°
2026-04-26 08:29 -6.13761 106.65112 39 ft 20 kts 248°
2026-04-26 08:29 -6.13814 106.64977 39 ft 22 kts 249°
2026-04-26 08:29 -6.13874 106.64828 37 ft 24 kts 248°
2026-04-26 08:29 -6.13937 106.64665 38 ft 27 kts 249°
2026-04-26 08:30 -6.14010 106.64483 39 ft 17 kts 246°
2026-04-26 08:30 -6.14043 106.64406 39 ft 15 kts 246°
2026-04-26 08:30 -6.14093 106.64310 39 ft 16 kts 220°
2026-04-26 08:30 -6.14182 106.64316 41 ft 12 kts 135°
2026-04-26 08:31 -6.14220 106.64372 41 ft 9 kts 137°
2026-04-26 08:31 -6.14239 106.64403 41 ft 5 kts 74°
2026-04-26 08:31 -6.14227 106.64430 38 ft 8 kts 68°
2026-04-26 08:31 -6.14163 106.64587 38 ft 58 kts 68°
2026-04-26 08:32 -6.13924 106.65175 40 ft 120 kts 68°
2026-04-26 08:32 -6.13555 106.66110 41 ft 167 kts 68°
2026-04-26 08:32 -6.13110 106.67195 603 ft 162 kts 63°
2026-04-26 08:32 -6.12664 106.68260 1180 ft 171 kts 65°
2026-04-26 08:33 -6.12228 106.69392 1584 ft 179 kts 67°
2026-04-26 08:33 -6.11736 106.70628 1796 ft 202 kts 65°
2026-04-26 08:33 -6.11187 106.72013 2050 ft 224 kts 66°
2026-04-26 08:33 -6.10623 106.73548 2423 ft 243 kts 76°
2026-04-26 08:34 -6.10513 106.75274 2814 ft 258 kts 88°
2026-04-26 08:34 -6.10490 106.77097 3510 ft 267 kts 89°
2026-04-26 08:34 -6.10468 106.78924 4269 ft 267 kts 89°
2026-04-26 08:34 -6.10419 106.80806 5102 ft 270 kts 88°
2026-04-26 08:35 -6.10363 106.82692 5936 ft 271 kts 88°
2026-04-26 08:35 -6.10308 106.84601 6662 ft 279 kts 88°
2026-04-26 08:35 -6.10216 106.86555 7249 ft 281 kts 81°
2026-04-26 08:35 -6.09621 106.88346 8055 ft 282 kts 65°
2026-04-26 08:36 -6.08622 106.90038 8836 ft 283 kts 47°
2026-04-26 08:36 -6.06976 106.91138 9564 ft 291 kts 18°
2026-04-26 08:36 -6.05014 106.91475 10131 ft 287 kts 11°
2026-04-26 08:36 -6.02953 106.91953 10438 ft 321 kts 18°
2026-04-26 08:37 -6.00778 106.92651 10643 ft 338 kts 20°
2026-04-26 08:37 -5.98505 106.93441 10906 ft 354 kts 21°
2026-04-26 08:37 -5.96160 106.94256 11477 ft 359 kts 20°
2026-04-26 08:37 -5.94603 106.94789 11895 ft 363 kts 20°
2026-04-26 08:38 -5.92172 106.95601 12562 ft 366 kts 19°
2026-04-26 08:38 -5.89745 106.96375 13156 ft 368 kts 19°
2026-04-26 08:38 -5.87272 106.97153 13748 ft 374 kts 19°
2026-04-26 08:38 -5.83977 106.98182 14442 ft 375 kts 19°
2026-04-26 08:39 -5.81471 106.98961 14928 ft 380 kts 19°
2026-04-26 08:39 -5.78922 106.99759 15461 ft 384 kts 19°
2026-04-26 08:39 -5.77192 107.00299 15831 ft 386 kts 19°
2026-04-26 08:39 -5.74620 107.01103 16344 ft 388 kts 19°
2026-04-26 08:40 -5.72023 107.01926 16875 ft 393 kts 19°
2026-04-26 08:40 -5.69414 107.02749 17401 ft 395 kts 19°
2026-04-26 08:40 -5.66790 107.03577 17866 ft 397 kts 19°
2026-04-26 08:40 -5.64133 107.04417 18357 ft 401 kts 19°
2026-04-26 08:41 -5.61458 107.05259 18785 ft 403 kts 19°
2026-04-26 08:41 -5.58765 107.06109 19176 ft 409 kts 19°
2026-04-26 08:41 -5.56071 107.06943 19635 ft 410 kts 19°
2026-04-26 08:41 -5.53329 107.07787 20064 ft 412 kts 19°
2026-04-26 08:42 -5.50583 107.08639 20469 ft 415 kts 19°
2026-04-26 08:42 -5.47825 107.09498 20826 ft 416 kts 19°
2026-04-26 08:42 -5.45043 107.10372 21193 ft 421 kts 19°
2026-04-26 08:42 -5.42241 107.11247 21619 ft 425 kts 19°
2026-04-26 08:43 -5.39425 107.12126 22006 ft 424 kts 19°
2026-04-26 08:43 -5.36589 107.13019 22353 ft 429 kts 19°
2026-04-26 08:43 -5.33740 107.13915 22713 ft 431 kts 19°
2026-04-26 08:43 -5.30881 107.14812 23062 ft 431 kts 18°
2026-04-26 08:44 -5.27993 107.15715 23381 ft 433 kts 19°
2026-04-26 08:44 -5.25104 107.16621 23654 ft 438 kts 19°
2026-04-26 08:44 -5.22187 107.17534 23944 ft 439 kts 18°
2026-04-26 08:44 -5.19272 107.18437 24201 ft 441 kts 18°
2026-04-26 08:45 -5.16333 107.19347 24495 ft 440 kts 19°
2026-04-26 08:45 -5.13401 107.20265 24773 ft 444 kts 19°
2026-04-26 08:45 -5.10449 107.21197 25063 ft 443 kts 19°
2026-04-26 08:45 -5.07505 107.22126 25309 ft 443 kts 19°
2026-04-26 08:46 -5.04564 107.23046 25497 ft 446 kts 19°
2026-04-26 08:46 -5.01574 107.23986 25743 ft 448 kts 19°
2026-04-26 08:46 -4.98650 107.24900 26089 ft 445 kts 18°
2026-04-26 08:46 -4.95695 107.25812 26562 ft 441 kts 18°
2026-04-26 08:47 -4.92754 107.26665 26976 ft 440 kts 16°
2026-04-26 08:47 -4.89787 107.27390 27407 ft 437 kts 14°
2026-04-26 08:47 -4.86824 107.28030 27844 ft 434 kts 13°
2026-04-26 08:47 -4.83875 107.28617 28312 ft 429 kts 12°
2026-04-26 08:48 -4.80960 107.29198 28765 ft 427 kts 13°
2026-04-26 08:48 -4.78062 107.29800 29225 ft 423 kts 13°
2026-04-26 08:48 -4.75179 107.30423 29700 ft 423 kts 14°
2026-04-26 08:48 -4.72315 107.31059 30140 ft 420 kts 14°
2026-04-26 08:49 -4.69486 107.31696 30540 ft 416 kts 14°
2026-04-26 08:49 -4.66663 107.32338 30835 ft 418 kts 14°
2026-04-26 08:49 -4.63827 107.32985 31072 ft 418 kts 14°
2026-04-26 08:49 -4.60984 107.33628 31328 ft 418 kts 14°
2026-04-26 08:50 -4.58121 107.34272 31584 ft 424 kts 14°
2026-04-26 08:50 -4.55227 107.34910 31839 ft 426 kts 13°
2026-04-26 08:50 -4.52326 107.35552 32102 ft 428 kts 14°
2026-04-26 08:50 -4.49420 107.36199 32373 ft 429 kts 13°
2026-04-26 08:51 -4.43558 107.37497 32911 ft 433 kts 13°
2026-04-26 08:51 -4.40610 107.38146 33180 ft 435 kts 13°
2026-04-26 08:51 -4.37647 107.38800 33441 ft 438 kts 13°
2026-04-26 08:52 -4.34667 107.39462 33675 ft 438 kts 13°
2026-04-26 08:52 -4.31691 107.40132 33917 ft 438 kts 14°
2026-04-26 08:52 -4.28724 107.40830 34139 ft 440 kts 17°
2026-04-26 08:52 -4.25864 107.41865 34373 ft 437 kts 22°
2026-04-26 08:53 -4.23042 107.43012 34591 ft 439 kts 23°
2026-04-26 08:53 -4.20228 107.44156 34808 ft 438 kts 23°
2026-04-26 08:53 -4.17392 107.45307 35042 ft 439 kts 23°
2026-04-26 08:53 -4.14566 107.46465 35270 ft 438 kts 23°
2026-04-26 08:54 -4.11763 107.47611 35495 ft 434 kts 23°
2026-04-26 08:54 -4.08970 107.48745 35734 ft 433 kts 23°
2026-04-26 08:54 -4.06170 107.49883 35969 ft 432 kts 24°
2026-04-26 08:54 -4.03392 107.51012 36191 ft 428 kts 23°
2026-04-26 08:55 -4.00650 107.52119 36444 ft 429 kts 23°
2026-04-26 08:55 -3.97891 107.53240 36689 ft 431 kts 23°
2026-04-26 08:55 -3.95093 107.54371 36810 ft 434 kts 23°
2026-04-26 08:56 -3.89483 107.56645 36832 ft 440 kts 23°
2026-04-26 08:56 -3.83841 107.59118 36846 ft 446 kts 27°
2026-04-26 08:57 -3.78211 107.61877 36832 ft 454 kts 27°
2026-04-26 08:57 -3.72497 107.64680 36826 ft 460 kts 27°
2026-04-26 08:58 -3.66720 107.67599 36828 ft 465 kts 32°
2026-04-26 08:58 -3.61384 107.71271 36819 ft 469 kts 43°
2026-04-26 08:59 -3.56664 107.75693 36840 ft 464 kts 44°
2026-04-26 08:59 -3.51997 107.80119 36823 ft 464 kts 44°
2026-04-26 09:00 -3.47316 107.84557 36820 ft 461 kts 44°
2026-04-26 09:00 -3.42669 107.88964 36804 ft 459 kts 44°
2026-04-26 09:01 -3.38047 107.93347 36793 ft 460 kts 44°
2026-04-26 09:01 -3.33402 107.97755 36813 ft 462 kts 44°
2026-04-26 09:02 -3.28716 108.02202 36827 ft 464 kts 44°
2026-04-26 09:02 -3.24176 108.06515 36833 ft 468 kts 44°
2026-04-26 09:02 -3.21950 108.08622 38420 ft 466 kts 44°
2026-04-26 09:03 -3.19599 108.10870 36807 ft 465 kts 44°
2026-04-26 09:03 -3.17272 108.13094 36918 ft 463 kts 44°
2026-04-26 09:03 -3.14941 108.15326 36910 ft 464 kts 44°
2026-04-26 09:04 -3.10248 108.19812 36920 ft 470 kts 44°
2026-04-26 09:04 -3.05542 108.24307 36917 ft 469 kts 44°
2026-04-26 09:05 -3.00822 108.28820 36918 ft 471 kts 44°
2026-04-26 09:05 -2.96082 108.33353 36931 ft 470 kts 44°
2026-04-26 09:06 -2.91387 108.37840 36925 ft 470 kts 44°
2026-04-26 09:06 -2.86490 108.42152 36937 ft 472 kts 32°
2026-04-26 09:06 -2.83529 108.43534 36918 ft 472 kts 17°
2026-04-26 09:07 -2.80336 108.44346 36918 ft 474 kts 14°
2026-04-26 09:07 -2.73927 108.45831 36928 ft 472 kts 14°
2026-04-26 09:08 -2.67533 108.47281 36926 ft 468 kts 13°
2026-04-26 09:08 -2.61168 108.48722 36892 ft 470 kts 14°
2026-04-26 09:09 -2.54783 108.50152 36931 ft 472 kts 14°
2026-04-26 09:09 -2.48460 108.51652 36876 ft 462 kts 15°
2026-04-26 09:10 -2.42140 108.53169 36908 ft 469 kts 14°
2026-04-26 09:10 -2.35727 108.54595 36901 ft 475 kts 13°
2026-04-26 09:11 -2.29300 108.56033 36913 ft 476 kts 14°
2026-04-26 09:11 -2.22855 108.57523 36923 ft 477 kts 14°
2026-04-26 09:12 -2.16414 108.59032 36917 ft 473 kts 14°
2026-04-26 09:12 -2.10004 108.60517 36921 ft 472 kts 14°
2026-04-26 09:13 -2.03593 108.61983 36906 ft 474 kts 14°
2026-04-26 09:13 -1.97168 108.63444 36913 ft 473 kts 14°
2026-04-26 09:14 -1.90758 108.64938 36910 ft 473 kts 14°
2026-04-26 09:14 -1.84329 108.66429 36907 ft 476 kts 14°
2026-04-26 09:15 -1.77852 108.67916 36924 ft 477 kts 14°
2026-04-26 09:15 -1.71415 108.69399 36932 ft 480 kts 14°
2026-04-26 09:16 -1.64956 108.70895 36923 ft 476 kts 14°
2026-04-26 09:16 -1.58551 108.72387 36246 ft 467 kts 14°
2026-04-26 09:16 -1.55408 108.73104 35334 ft 460 kts 14°
2026-04-26 09:17 -1.52305 108.73811 34472 ft 455 kts 14°
2026-04-26 09:17 -1.50229 108.74285 33911 ft 451 kts 14°
2026-04-26 09:17 -1.46219 108.75202 32703 ft 441 kts 14°
2026-04-26 09:17 -1.43245 108.75888 31864 ft 436 kts 15°
2026-04-26 09:18 -1.40311 108.76564 31087 ft 430 kts 15°
2026-04-26 09:18 -1.37421 108.77237 30338 ft 422 kts 15°
2026-04-26 09:18 -1.34582 108.77897 29494 ft 417 kts 15°
2026-04-26 09:18 -1.31779 108.78537 28627 ft 409 kts 15°
2026-04-26 09:19 -1.29052 108.79158 27767 ft 396 kts 15°
2026-04-26 09:19 -1.26363 108.79780 26809 ft 396 kts 15°
2026-04-26 09:19 -1.23688 108.80399 25990 ft 392 kts 15°
2026-04-26 09:19 -1.21043 108.81008 25196 ft 387 kts 15°
2026-04-26 09:20 -1.18424 108.81603 24404 ft 384 kts 15°
2026-04-26 09:20 -1.15834 108.82195 23671 ft 382 kts 15°
2026-04-26 09:20 -1.13245 108.82792 22889 ft 378 kts 15°
2026-04-26 09:20 -1.10704 108.83377 21899 ft 376 kts 15°
2026-04-26 09:21 -1.08178 108.83959 21590 ft 363 kts 15°
2026-04-26 09:21 -1.05726 108.84522 20978 ft 362 kts 15°
2026-04-26 09:21 -1.03296 108.85073 20552 ft 362 kts 15°
2026-04-26 09:21 -1.00851 108.85640 20168 ft 359 kts 15°
2026-04-26 09:22 -0.98434 108.86209 19766 ft 355 kts 16°
2026-04-26 09:22 -0.96032 108.86771 19344 ft 352 kts 15°
2026-04-26 09:22 -0.93636 108.87318 18931 ft 352 kts 15°
2026-04-26 09:22 -0.91255 108.87868 18556 ft 349 kts 15°
2026-04-26 09:23 -0.88896 108.88428 18142 ft 348 kts 19°
2026-04-26 09:23 -0.86660 108.89290 17717 ft 343 kts 29°
2026-04-26 09:23 -0.84612 108.90491 17319 ft 340 kts 34°
2026-04-26 09:23 -0.82606 108.91725 16941 ft 338 kts 34°
2026-04-26 09:24 -0.80605 108.92953 16594 ft 335 kts 34°
2026-04-26 09:24 -0.78633 108.94168 16213 ft 334 kts 34°
2026-04-26 09:24 -0.76667 108.95376 15852 ft 330 kts 34°
2026-04-26 09:24 -0.74715 108.96571 15467 ft 327 kts 34°
2026-04-26 09:25 -0.72773 108.97761 14762 ft 330 kts 34°
2026-04-26 09:25 -0.70777 108.98989 13789 ft 340 kts 33°
2026-04-26 09:25 -0.69444 108.99807 13251 ft 340 kts 33°
2026-04-26 09:25 -0.66777 109.01432 12790 ft 333 kts 33°
2026-04-26 09:26 -0.65466 109.02229 12519 ft 332 kts 33°
2026-04-26 09:26 -0.63503 109.03428 12098 ft 329 kts 33°
2026-04-26 09:26 -0.61558 109.04616 11682 ft 325 kts 33°
2026-04-26 09:26 -0.59698 109.05879 11209 ft 322 kts 42°
2026-04-26 09:27 -0.58179 109.07508 10779 ft 320 kts 55°
2026-04-26 09:27 -0.57018 109.09398 10360 ft 317 kts 60°
2026-04-26 09:27 -0.55913 109.11301 9934 ft 317 kts 60°
2026-04-26 09:27 -0.54812 109.13202 9484 ft 316 kts 60°
2026-04-26 09:28 -0.53724 109.15063 8941 ft 305 kts 60°
2026-04-26 09:28 -0.52612 109.16947 7825 ft 326 kts 60°
2026-04-26 09:28 -0.51426 109.18946 7232 ft 340 kts 60°
2026-04-26 09:28 -0.50206 109.20974 6778 ft 341 kts 60°
2026-04-26 09:29 -0.48999 109.23007 6371 ft 339 kts 60°
2026-04-26 09:29 -0.47806 109.25048 5950 ft 340 kts 60°
2026-04-26 09:29 -0.46626 109.27077 5516 ft 336 kts 60°
2026-04-26 09:29 -0.45462 109.29075 5096 ft 332 kts 60°
2026-04-26 09:30 -0.44305 109.31052 4731 ft 331 kts 60°
2026-04-26 09:30 -0.43180 109.32975 4485 ft 299 kts 60°
2026-04-26 09:30 -0.42325 109.34741 4291 ft 274 kts 68°
2026-04-26 09:30 -0.41625 109.36440 4099 ft 255 kts 68°
2026-04-26 09:31 -0.40953 109.38056 3910 ft 247 kts 68°
2026-04-26 09:31 -0.40320 109.39600 3752 ft 234 kts 68°
2026-04-26 09:31 -0.39723 109.41072 3608 ft 224 kts 68°
2026-04-26 09:31 -0.39135 109.42505 3464 ft 221 kts 68°
2026-04-26 09:32 -0.38559 109.43899 3347 ft 212 kts 68°
2026-04-26 09:32 -0.38014 109.45235 3217 ft 205 kts 68°
2026-04-26 09:32 -0.37500 109.46506 3146 ft 187 kts 69°
2026-04-26 09:32 -0.36890 109.47582 3048 ft 171 kts 46°
2026-04-26 09:33 -0.35952 109.48201 2968 ft 157 kts 19°
2026-04-26 09:33 -0.34849 109.48337 2999 ft 172 kts 354°
2026-04-26 09:33 -0.33666 109.47965 2980 ft 182 kts 338°
2026-04-26 09:33 -0.32499 109.47488 2968 ft 179 kts 339°
2026-04-26 09:34 -0.31338 109.47008 2908 ft 183 kts 338°
2026-04-26 09:34 -0.30161 109.46527 2714 ft 183 kts 338°
2026-04-26 09:34 -0.28994 109.46051 2527 ft 179 kts 338°
2026-04-26 09:34 -0.27861 109.45589 2341 ft 172 kts 338°
2026-04-26 09:35 -0.26818 109.45166 2174 ft 154 kts 338°
2026-04-26 09:35 -0.25855 109.44783 1999 ft 147 kts 338°
2026-04-26 09:35 -0.24910 109.44399 1822 ft 146 kts 337°
2026-04-26 09:35 -0.23973 109.44012 1623 ft 147 kts 336°
2026-04-26 09:36 -0.23025 109.43626 1420 ft 146 kts 337°
2026-04-26 09:36 -0.22107 109.43252 1237 ft 143 kts 336°
2026-04-26 09:36 -0.21191 109.42879 1043 ft 142 kts 337°
2026-04-26 09:36 -0.20272 109.42508 863 ft 143 kts 336°
2026-04-26 09:37 -0.19352 109.42134 698 ft 140 kts 336°
2026-04-26 09:37 -0.18445 109.41759 483 ft 142 kts 334°
2026-04-26 09:37 -0.17533 109.41384 307 ft 142 kts 334°
2026-04-26 09:37 -0.16618 109.41019 121 ft 141 kts 334°
2026-04-26 09:38 -0.15743 109.40654 20 ft 124 kts 336°
2026-04-26 09:38 -0.15096 109.40392 21 ft 76 kts 338°
2026-04-26 09:38 -0.14832 109.40287 22 ft 23 kts 338°
2026-04-26 09:38 -0.14735 109.40243 20 ft 8 kts 335°
2026-04-26 09:39 -0.14696 109.40252 21 ft 4 kts 78°
2026-04-26 09:39 -0.14684 109.40292 20 ft 8 kts 73°
2026-04-26 09:39 -0.14709 109.40333 20 ft 8 kts 159°
2026-04-26 09:39 -0.14756 109.40350 22 ft 4 kts 159°
2026-04-26 09:40 -0.14781 109.40360 21 ft 3 kts 159°
2026-04-26 09:40 -0.14799 109.40366 23 ft 3 kts 159°
2026-04-26 09:40 -0.14820 109.40375 21 ft 3 kts 157°
2026-04-26 09:40 -0.14830 109.40383 21 ft 1 kts 123°
2026-04-26 09:41 -0.14826 109.40394 21 ft 5 kts 75°
2026-04-26 09:41 -0.14816 109.40421 21 ft 1 kts 69°
2026-04-26 09:41 -0.14813 109.40428 21 ft 0 kts 68°